Weather History for Grand Marais, MN

Change the Weather History Date:

Monday, November 19, 2012

  Actual Average (KCKC) Record (KCKC)
Temperature  
Mean Temperature 40 °F -  
Max Temperature 46 °F 29 °F 46 °F (2012)
Min Temperature 34 °F 18 °F 0 °F (2014)
Degree Days  
Heating Degree Days 25    
Moisture  
Dew Point 36 °F    
Average Humidity 89    
Maximum Humidity 93    
Minimum Humidity 76    
Precipitation  
Precipitation 0.08 in - - ()
Sea Level Pressure  
Sea Level Pressure 30.08 in    
Wind  
Wind Speed 1 mph (North)    
Max Wind Speed 7 mph    
Max Gust Speed -    
Averages and records for this station are not official NWS values.
T = Trace of Precipitation, MM = Missing Value Source: NWS Daily Summary

Daily Weather History Graph

Daily Weather History Graph

Search for Another Location

Airport:

Trip Planner

Search our weather history database for the weather conditions in past years. The results will help you decide how hot, cold, wet, or windy it might be!

Date:

Astronomy

Nov. 19, 2012 Rise Set
Actual Time 7:13 AM CST 4:19 PM CST
Civil Twilight 6:39 AM CST 4:53 PM CST
Nautical Twilight 6:01 AM CST 5:31 PM CST
Astronomical Twilight 5:24 AM CST 6:08 PM CST
Moon 12:06 PM CST (11/19) 10:59 PM CST (11/19)
Length of Visible Light 10h 14m
Length of Day
9h 06m
Waxing Crescent, 41% of the Moon is Illuminated
Nov 19
Waxing Crescent
Nov 20
First Quarter
Nov 28
Full
Dec 6
Last Quarter
Dec 13
New

Hourly Weather History & Observations

Time (CST) Temp. Windchill Dew Point Humidity Pressure Visibility Wind Dir Wind Speed Gust Speed Precip Events Conditions
12:56 AM 34.0 °F - 32.0 °F 92% 30.14 in - Calm Calm - N/A   Unknown
1:56 AM 34.0 °F 31.0 °F 32.0 °F 92% 30.13 in - NNE 3.5 mph - N/A   Unknown
2:56 AM 34.0 °F 31.0 °F 32.0 °F 92% 30.13 in - North 3.5 mph - N/A   Unknown
3:56 AM 35.1 °F 32.2 °F 32.0 °F 89% 30.12 in - North 3.5 mph - N/A   Unknown
4:56 AM 35.1 °F - 32.0 °F 89% 30.12 in - Calm Calm - N/A   Unknown
5:56 AM 34.0 °F - 32.0 °F 92% 30.11 in - Calm Calm - N/A   Unknown
6:56 AM 35.1 °F - 32.0 °F 89% 30.11 in - Calm Calm - N/A   Unknown
7:56 AM 36.0 °F - 34.0 °F 93% 30.12 in - Calm Calm - N/A   Unknown
8:56 AM 42.1 °F - 37.9 °F 85% 30.11 in - Calm Calm - N/A   Unknown
9:56 AM 46.0 °F - 39.0 °F 76% 30.10 in - Calm Calm - N/A   Unknown
10:56 AM 46.0 °F 43.9 °F 41.0 °F 83% 30.11 in - SSE 4.6 mph - N/A   Unknown
11:56 AM 46.9 °F - 41.0 °F 80% 30.09 in - Calm Calm - N/A   Unknown
12:56 PM 46.0 °F 42.5 °F 39.0 °F 76% 30.08 in - South 6.9 mph - N/A   Unknown
1:56 PM 44.1 °F - 41.0 °F 89% 30.06 in - Calm Calm - 0.04 in   Unknown
2:56 PM 44.1 °F - 41.0 °F 89% 30.06 in - Calm Calm - 0.03 in   Unknown
3:56 PM 44.1 °F - 42.1 °F 93% 30.06 in - Calm Calm - 0.01 in   Unknown
4:56 PM 44.1 °F - 41.0 °F 89% 30.05 in - Calm Calm - N/A   Unknown
5:56 PM 43.0 °F - 41.0 °F 93% 30.06 in - Calm Calm - N/A   Unknown
6:56 PM 43.0 °F - 41.0 °F 93% 30.05 in - Calm Calm - N/A   Unknown
7:56 PM 39.0 °F - 36.0 °F 89% 30.04 in - Calm Calm - N/A   Unknown
8:56 PM 37.0 °F - 35.1 °F 93% 30.04 in - Calm Calm - N/A   Unknown
9:56 PM 37.0 °F 34.5 °F 34.0 °F 89% 30.04 in - NNW 3.5 mph - N/A   Unknown
10:56 PM 36.0 °F - 33.1 °F 89% 30.05 in - Calm Calm - N/A   Unknown
11:56 PM 36.0 °F - 34.0 °F 93% 30.05 in - Calm Calm - N/A   Unknown